Leonardtown, MD

1:57 PM EDT on July 28, 2017 (GMT -0400)
Leonardtown

Weather History for K2W6 - January, 2013

Change the Weather History Date:

Wednesday, January 2, 2013

  Actual Average (KNHK) Record (KNHK)
Temperature  
Mean Temperature 34 °F -  
Max Temperature 39 °F 45 °F 68 °F (2000)
Min Temperature 30 °F 29 °F 21 °F (1977)
Degree Days  
Heating Degree Days 30    
Moisture  
Dew Point 23 °F    
Average Humidity 62    
Maximum Humidity 87    
Minimum Humidity 45    
Precipitation  
Precipitation 0.00 in - - ()
Sea Level Pressure  
Sea Level Pressure 30.12 in    
Wind  
Wind Speed 2 mph (NNW)    
Max Wind Speed 7 mph    
Max Gust Speed -    
Visibility 10 miles    
Events      
Averages and records for this station are not official NWS values.
T = Trace of Precipitation, MM = Missing Value Source: NWS Daily Summary

Daily Weather History Graph

Daily Weather History Graph

Search for Another Location

Airport or City:

Trip Planner

Search our weather history database for the weather conditions in past years. The results will help you decide how hot, cold, wet, or windy it might be!

Date:

Astronomy

Jan. 02, 2013 Rise Set
Actual Time 7:23 AM EST 4:57 PM EST
Civil Twilight 6:53 AM EST 5:27 PM EST
Nautical Twilight 6:20 AM EST 6:00 PM EST
Astronomical Twilight 5:48 AM EST 6:32 PM EST
Moon 10:22 PM EST (1/2) 10:08 AM EST (1/2)
Length of Visible Light 10h 33m
Length of Day
9h 34m
Waning Gibbous, 75% of the Moon is Illuminated
Jan 2
Waning Gibbous
Jan 4
Last Quarter
Jan 11
New
Jan 18
First Quarter
Jan 26
Full

Hourly Weather History & Observations

Time (EST) Temp. Windchill Dew Point Humidity Pressure Visibility Wind Dir Wind Speed Gust Speed Precip Events Conditions
12:20 AM 39.2 °F - 30.2 °F 70% 30.02 in 10.0 mi Calm Calm - N/A   Overcast
12:41 AM 39.2 °F - 30.2 °F 70% 30.00 in 10.0 mi Calm Calm - N/A   Overcast
1:02 AM 39.2 °F - 30.2 °F 70% 30.01 in 10.0 mi Calm Calm - N/A   Overcast
1:24 AM 39.2 °F - 30.2 °F 70% 30.02 in 10.0 mi Calm Calm - N/A   Overcast
1:45 AM 39.2 °F 37.0 °F 30.2 °F 70% 30.01 in 10.0 mi NNW 3.5 mph - N/A   Overcast
2:06 AM 37.4 °F - 30.2 °F 75% 30.02 in 10.0 mi Calm Calm - N/A   Overcast
2:28 AM 37.4 °F - 30.2 °F 75% 30.03 in 10.0 mi Calm Calm - N/A   Overcast
2:49 AM 37.4 °F - 30.2 °F 75% 30.03 in 10.0 mi Calm Calm - N/A   Overcast
3:10 AM 35.6 °F - 32.0 °F 87% 30.04 in 10.0 mi Calm Calm - N/A   Overcast
3:31 AM 35.6 °F - 32.0 °F 87% 30.02 in 10.0 mi Calm Calm - N/A   Overcast
3:53 AM 35.6 °F - 32.0 °F 87% 30.02 in 10.0 mi Calm Calm - N/A   Overcast
4:14 AM 35.6 °F 32.8 °F 32.0 °F 87% 30.03 in 10.0 mi NE 3.5 mph - N/A   Overcast
4:35 AM 35.6 °F 32.8 °F 30.2 °F 81% 30.02 in 10.0 mi NE 3.5 mph - N/A   Overcast
4:56 AM 35.6 °F - 30.2 °F 81% 30.02 in 10.0 mi Calm Calm - N/A   Overcast
5:18 AM 35.6 °F - 30.2 °F 81% 30.03 in 10.0 mi Calm Calm - N/A   Overcast
6:21 AM 35.6 °F - 28.4 °F 75% 30.06 in 10.0 mi Calm Calm - N/A   Overcast
6:43 AM 35.6 °F - 28.4 °F 75% 30.06 in 10.0 mi Calm Calm - N/A   Overcast
7:04 AM 35.6 °F 32.8 °F 26.6 °F 70% 30.07 in 10.0 mi North 3.5 mph - N/A   Overcast
7:25 AM 35.6 °F 32.8 °F 26.6 °F 70% 30.08 in 10.0 mi North 3.5 mph - N/A   Overcast
8:08 AM 33.8 °F - 24.8 °F 70% 30.10 in 10.0 mi Calm Calm - N/A   Mostly Cloudy
8:29 AM 33.8 °F - 26.6 °F 75% 30.10 in 10.0 mi Calm Calm - N/A   Scattered Clouds
8:50 AM 35.6 °F - 23.0 °F 60% 30.11 in 10.0 mi Calm Calm - N/A   Overcast
9:11 AM 35.6 °F - 23.0 °F 60% 30.13 in 10.0 mi Calm Calm - N/A   Overcast
9:12 AM 35.6 °F - 23.0 °F 60% 30.13 in 10.0 mi Calm Calm - N/A   Overcast
9:33 AM 35.6 °F 31.7 °F 23.0 °F 60% 30.14 in 10.0 mi North 4.6 mph - N/A   Scattered Clouds
9:54 AM 35.6 °F 31.7 °F 21.2 °F 56% 30.14 in 10.0 mi NNW 4.6 mph - N/A   Scattered Clouds
10:15 AM 35.6 °F 32.8 °F 21.2 °F 56% 30.14 in 10.0 mi NNW 3.5 mph - N/A   Clear
10:36 AM 35.6 °F 32.8 °F 23.0 °F 60% 30.15 in 10.0 mi NNW 3.5 mph - N/A   Clear
10:58 AM 35.6 °F 29.9 °F 21.2 °F 56% 30.14 in 10.0 mi NNW 6.9 mph - N/A   Clear
11:19 AM 35.6 °F 29.9 °F 21.2 °F 56% 30.13 in 10.0 mi NW 6.9 mph - N/A   Clear
11:40 AM 35.6 °F 31.7 °F 21.2 °F 56% 30.12 in 10.0 mi North 4.6 mph - N/A   Clear
12:01 PM 35.6 °F 29.9 °F 21.2 °F 56% 30.11 in 10.0 mi North 6.9 mph - N/A   Clear
12:23 PM 37.4 °F 32.8 °F 21.2 °F 52% 30.10 in 10.0 mi NW 5.8 mph - N/A   Clear
12:44 PM 37.4 °F 32.1 °F 21.2 °F 52% 30.10 in 10.0 mi WNW 6.9 mph - N/A   Clear
1:05 PM 37.4 °F 32.8 °F 21.2 °F 52% 30.09 in 10.0 mi WNW 5.8 mph - N/A   Clear
1:26 PM 37.4 °F 32.8 °F 21.2 °F 52% 30.10 in 10.0 mi WNW 5.8 mph - N/A   Clear
1:48 PM 37.4 °F 33.8 °F 21.2 °F 52% 30.10 in 10.0 mi NNW 4.6 mph - N/A   Clear
2:09 PM 37.4 °F 32.1 °F 19.4 °F 48% 30.11 in 10.0 mi NW 6.9 mph - N/A   Clear
2:30 PM 37.4 °F - 19.4 °F 48% 30.11 in 10.0 mi Calm Calm - N/A   Clear
2:51 PM 37.4 °F 33.8 °F 19.4 °F 48% 30.11 in 10.0 mi WNW 4.6 mph - N/A   Clear
3:13 PM 37.4 °F 33.8 °F 19.4 °F 48% 30.11 in 10.0 mi NW 4.6 mph - N/A   Clear
3:34 PM 37.4 °F 33.8 °F 17.6 °F 45% 30.13 in 10.0 mi NNW 4.6 mph - N/A   Clear
3:55 PM 35.6 °F 31.7 °F 17.6 °F 48% 30.13 in 10.0 mi NW 4.6 mph - N/A   Clear
4:16 PM 35.6 °F 31.7 °F 17.6 °F 48% 30.15 in 10.0 mi WNW 4.6 mph - N/A   Clear
4:37 PM 35.6 °F 30.7 °F 17.6 °F 48% 30.16 in 10.0 mi NW 5.8 mph - N/A   Clear
6:24 PM 32.0 °F - 17.6 °F 55% 30.19 in 10.0 mi Calm Calm - N/A   Clear
6:45 PM 32.0 °F - 19.4 °F 60% 30.20 in 10.0 mi Calm Calm - N/A   Clear
7:06 PM 32.0 °F - 19.4 °F 60% 30.21 in 10.0 mi Calm Calm - N/A   Clear
7:27 PM 32.0 °F - 19.4 °F 60% 30.21 in 10.0 mi Calm Calm - N/A   Clear
7:49 PM 30.2 °F - 19.4 °F 64% 30.21 in 10.0 mi Calm Calm - N/A   Clear
8:10 PM 32.0 °F - 17.6 °F 55% 30.21 in 10.0 mi Calm Calm - N/A   Clear
8:31 PM 32.0 °F - 19.4 °F 60% 30.20 in 10.0 mi Calm Calm - N/A   Clear
8:52 PM 32.0 °F - 17.6 °F 55% 30.22 in 10.0 mi Calm Calm - N/A   Clear
9:14 PM 32.0 °F - 17.6 °F 55% 30.22 in 10.0 mi Calm Calm - N/A   Clear
9:35 PM 32.0 °F - 17.6 °F 55% 30.23 in 10.0 mi Calm Calm - N/A   Clear
9:56 PM 32.0 °F - 19.4 °F 60% 30.24 in 10.0 mi Calm Calm - N/A   Clear
10:18 PM 30.2 °F - 19.4 °F 64% 30.24 in 10.0 mi Calm Calm - N/A   Clear
10:39 PM 30.2 °F - 19.4 °F 64% 30.25 in 10.0 mi Calm Calm - N/A   Clear
11:00 PM 32.0 °F - 17.6 °F 55% 30.24 in 10.0 mi Calm Calm - N/A   Clear
11:21 PM 32.0 °F - 14.0 °F 48% 30.24 in 10.0 mi Calm Calm - N/A   Clear
11:43 PM 32.0 °F 28.7 °F 14.0 °F 48% 30.24 in 10.0 mi North 3.5 mph - N/A   Clear